DW4075 Weather Reports


Display with metric or nautical units.
time (UTC)temp
F
wind
direction
speed
MPH
gust
MPH
rain 1hr
in
rain 24hr
in
rain mn
in
humidity
%
barometer
mb
20260509040615 65 294 6.0 9.0 0.00 0.00 0.00 23 1017.1
20260509040341 65 291 6.0 10.0 0.00 0.00 0.00 22 1017.2
20260509035612 66 304 6.0 11.0 0.00 0.00 0.00 22 1017.4
20260509035333 66 279 7.0 13.0 0.00 0.00 0.00 22 1017.4
20260509034608 67 299 7.0 13.0 0.00 0.00 0.00 21 1017.4
20260509034108 67 305 7.0 13.0 0.00 0.00 0.00 21 1017.6
20260509033830 67 304 8.0 13.0 0.00 0.00 0.00 21 1017.4
20260509033105 67 300 8.0 12.0 0.00 0.00 0.00 21 1017.3
20260509032606 67 306 7.0 13.0 0.00 0.00 0.00 21 1017.2
20260509032106 67 290 7.0 13.0 0.00 0.00 0.00 21 1017.2
20260509031603 67 299 7.0 13.0 0.00 0.00 0.00 21 1017.2
20260509031104 67 298 7.0 11.0 0.00 0.00 0.00 21 1017.2
20260509030604 67 281 7.0 13.0 0.00 0.00 0.00 20 1017.2
20260509030100 67 294 7.0 14.0 0.00 0.00 0.00 20 1017.2
20260509025817 67 288 7.0 14.0 0.00 0.00 0.00 20 1017.2
20260509025054 67 291 6.0 12.0 0.00 0.00 0.00 20 1017.2
20260509024554 67 290 7.0 12.0 0.00 0.00 0.00 20 1017.2
20260509024053 68 288 6.0 12.0 0.00 0.00 0.00 20 1017.2
20260509023554 68 290 6.0 11.0 0.00 0.00 0.00 20 1017.2
20260509023049 68 295 6.0 9.0 0.00 0.00 0.00 19 1017.3
20260509022547 69 292 5.0 9.0 0.00 0.00 0.00 19 1017.4
20260509022043 69 286 5.0 9.0 0.00 0.00 0.00 19 1017.4
20260509022022 69 279 6.0 9.0 0.00 0.00 0.00 18 1017.7
20260509021306 70 288 6.0 13.0 0.00 0.00 0.00 18 1017.8
20260509020538 70 300 8.0 15.0 0.00 0.00 0.00 18 1017.8
20260509020300 71 286 8.0 15.0 0.00 0.00 0.00 18 1017.9
20260509015750 71 295 8.0 16.0 0.00 0.00 0.00 17 1018.0
20260509015038 72 304 8.0 14.0 0.00 0.00 0.00 17 1018.0
20260509014534 72 290 8.0 14.0 0.00 0.00 0.00 16 1018.2
20260509014029 73 276 8.0 14.0 0.00 0.00 0.00 16 1018.4
20260509013526 74 313 7.0 14.0 0.00 0.00 0.00 15 1018.7
20260509013010 74 283 6.0 11.0 0.00 0.00 0.00 15 1018.8
20260509012504 75 295 6.0 11.0 0.00 0.00 0.00 14 1018.9
20260509012002 75 283 5.0 11.0 0.00 0.00 0.00 14 1019.1
20260509011453 76 300 6.0 11.0 0.00 0.00 0.00 14 1019.0
20260509010947 76 319 8.0 12.0 0.00 0.00 0.00 14 1019.3
20260509010442 76 281 8.0 15.0 0.00 0.00 0.00 14 1019.3
20260509005940 76 311 8.0 15.0 0.00 0.00 0.00 13 1019.4
20260509005705 77 271 8.0 15.0 0.00 0.00 0.00 14 1019.6
20260509004939 77 306 7.0 15.0 0.00 0.00 0.00 14 1019.7
20260509004439 78 288 7.0 15.0 0.00 0.00 0.00 14 1019.7
20260509003937 78 271 8.0 14.0 0.00 0.00 0.00 14 1020.0
20260509003436 78 289 9.0 16.0 0.00 0.00 0.00 14 1019.9
20260509002932 79 284 9.0 18.0 0.00 0.00 0.00 13 1020.4
20260509002432 80 296 8.0 18.0 0.00 0.00 0.00 13 1020.5
20260509001929 80 279 7.0 16.0 0.00 0.00 0.00 13 1021.0
20260509001430 80 304 6.0 15.0 0.00 0.00 0.00 14 1021.0
20260509000927 80 282 7.0 13.0 0.00 0.00 0.00 14 1020.8
20260509000433 79 315 6.0 13.0 0.00 0.00 0.00 13 1020.6
20260508235930 79 284 5.0 12.0 0.00 0.00 0.00 13 1020.6
20260508235430 80 224 4.0 8.0 0.00 0.00 0.00 14 1020.7
20260508234927 80 161 4.0 8.0 0.00 0.00 0.00 15 1020.8
20260508234649 80 188 3.0 9.0 0.00 0.00 0.00 15 1020.6
20260508233919 79 128 3.0 9.0 0.00 0.00 0.00 15 1020.4
20260508233639 78 152 2.0 6.0 0.00 0.00 0.00 16 1020.2
20260508232913 78 150 3.0 9.0 0.00 0.00 0.00 16 1020.1
20260508232633 78 150 5.0 9.0 0.00 0.00 0.00 15 1020.1
20260508231909 79 251 3.0 10.0 0.00 0.00 0.00 15 1020.2
20260508231406 79 138 2.0 10.0 0.00 0.00 0.00 15 1020.5
20260508230907 80 184 2.0 8.0 0.00 0.00 0.00 15 1020.7
20260508230407 80 184 4.0 9.0 0.00 0.00 0.00 15 1021.0
20260508225903 81 178 5.0 12.0 0.00 0.00 0.00 14 1021.2
20260508225402 81 178 3.0 12.0 0.00 0.00 0.00 15 1021.3
20260508224903 81 169 4.0 10.0 0.00 0.00 0.00 15 1021.3
20260508224403 81 172 5.0 10.0 0.00 0.00 0.00 14 1021.6
20260508223900 81 123 4.0 9.0 0.00 0.00 0.00 15 1021.6
20260508223401 81 126 3.0 8.0 0.00 0.00 0.00 15 1021.7
20260508222857 81 128 3.0 8.0 0.00 0.00 0.00 15 1021.5
20260508222609 81 136 4.0 10.0 0.00 0.00 0.00 15 1021.6
20260508221845 81 146 4.0 10.0 0.00 0.00 0.00 15 1022.1
20260508221340 82 156 4.0 8.0 0.00 0.00 0.00 15 1022.3
20260508220841 82 163 6.0 14.0 0.00 0.00 0.00 14 1022.3
20260508220341 82 162 6.0 14.0 0.00 0.00 0.00 15 1022.3
20260508215839 81 202 4.0 10.0 0.00 0.00 0.00 15 1022.2
20260508215339 81 130 5.0 10.0 0.00 0.00 0.00 15 1022.1
20260508214837 80 150 5.0 9.0 0.00 0.00 0.00 15 1022.2
20260508214336 80 103 5.0 10.0 0.00 0.00 0.00 16 1021.8
20260508213835 79 129 6.0 12.0 0.00 0.00 0.00 16 1021.7
20260508213332 79 142 5.0 12.0 0.00 0.00 0.00 16 1021.7
20260508212830 79 123 5.0 10.0 0.00 0.00 0.00 16 1021.8
20260508212816 79 171 4.0 9.0 0.00 0.00 0.00 16 1021.8
20260508211831 79 95 4.0 8.0 0.00 0.00 0.00 15 1022.1
20260508211330 80 121 4.0 8.0 0.00 0.00 0.00 15 1022.3
20260508211103 80 88 5.0 10.0 0.00 0.00 0.00 15 1022.4
20260508210819 80 132 7.0 13.0 0.00 0.00 0.00 16 1022.5
20260508205830 80 123 6.0 13.0 0.00 0.00 0.00 16 1022.5
20260508205326 79 108 4.0 9.0 0.00 0.00 0.00 15 1022.2
20260508204819 79 153 5.0 10.0 0.00 0.00 0.00 16 1022.3
20260508204317 79 236 6.0 13.0 0.00 0.00 0.00 16 1022.5
20260508203804 79 173 5.0 13.0 0.00 0.00 0.00 16 1022.7
20260508203300 79 97 4.0 9.0 0.00 0.00 0.00 16 1022.7
20260508202759 79 135 4.0 11.0 0.00 0.00 0.00 15 1022.8
20260508202248 79 134 4.0 11.0 0.00 0.00 0.00 15 1022.9
20260508201742 79 23 5.0 11.0 0.00 0.00 0.00 17 1022.8
20260508201240 79 103 4.0 11.0 0.00 0.00 0.00 16 1022.9
20260508200732 78 110 3.0 9.0 0.00 0.00 0.00 16 1022.9
20260508200229 78 119 2.0 9.0 0.00 0.00 0.00 16 1023.0
20260508195725 78 149 3.0 8.0 0.00 0.00 0.00 17 1022.9
20260508195219 77 150 4.0 8.0 0.00 0.00 0.00 17 1022.8
20260508194717 77 113 5.0 9.0 0.00 0.00 0.00 16 1022.8
20260508194213 77 80 5.0 9.0 0.00 0.00 0.00 17 1022.9
20260508193712 77 125 5.0 9.0 0.00 0.00 0.00 16 1022.8
20260508193214 77 106 5.0 16.0 0.00 0.00 0.00 16 1022.9
20260508192927 77 123 5.0 16.0 0.00 0.00 0.00 16 1023.0
20260508192209 77 155 5.0 12.0 0.00 0.00 0.00 17 1023.2
20260508191709 77 207 5.0 9.0 0.00 0.00 0.00 17 1023.0
20260508191210 77 161 5.0 9.0 0.00 0.00 0.00 16 1023.3
20260508190709 78 144 5.0 11.0 0.00 0.00 0.00 17 1023.4
20260508190204 78 193 7.0 11.0 0.00 0.00 0.00 16 1023.6
20260508185925 77 196 8.0 18.0 0.00 0.00 0.00 18 1023.4
20260508185201 77 167 7.0 18.0 0.00 0.00 0.00 17 1023.3
20260508184701 77 224 5.0 16.0 0.00 0.00 0.00 18 1023.2
20260508184201 76 297 4.0 8.0 0.00 0.00 0.00 18 1023.2
20260508183701 76 121 4.0 8.0 0.00 0.00 0.00 17 1023.3
20260508183418 76 205 4.0 9.0 0.00 0.00 0.00 18 1023.4
20260508182701 75 64 4.0 10.0 0.00 0.00 0.00 17 1023.3
20260508182155 75 69 4.0 10.0 0.00 0.00 0.00 18 1023.3
20260508181655 74 40 4.0 9.0 0.00 0.00 0.00 18 1023.2
20260508181154 75 67 4.0 8.0 0.00 0.00 0.00 18 1023.3
20260508180649 75 142 4.0 10.0 0.00 0.00 0.00 18 1023.5
20260508180142 75 63 4.0 10.0 0.00 0.00 0.00 19 1023.5
20260508175641 74 63 3.0 9.0 0.00 0.00 0.00 18 1023.4
20260508175406 74 83 3.0 10.0 0.00 0.00 0.00 20 1023.4
20260508174640 73 55 5.0 11.0 0.00 0.00 0.00 19 1023.2
20260508174137 73 80 5.0 11.0 0.00 0.00 0.00 19 1023.2
20260508174125 73 99 4.0 10.0 0.00 0.00 0.00 20 1023.0
20260508173132 72 101 4.0 11.0 0.00 0.00 0.00 19 1023.2
20260508172850 72 69 4.0 11.0 0.00 0.00 0.00 19 1023.4
20260508172131 72 76 4.0 8.0 0.00 0.00 0.00 20 1023.2
20260508171631 72 85 4.0 9.0 0.00 0.00 0.00 20 1023.0
20260508171131 71 93 4.0 9.0 0.00 0.00 0.00 20 1023.2
20260508170631 71 98 4.0 9.0 0.00 0.00 0.00 21 1022.9
20260508170355 70 115 4.0 9.0 0.00 0.00 0.00 20 1022.7
20260508165631 70 53 4.0 9.0 0.00 0.00 0.00 21 1022.7
20260508165352 69 76 4.0 9.0 0.00 0.00 0.00 22 1022.5
20260508164851 69 96 3.0 9.0 0.00 0.00 0.00 21 1022.5
20260508164129 69 63 4.0 8.0 0.00 0.00 0.00 21 1022.5
20260508163630 69 59 4.0 8.0 0.00 0.00 0.00 21 1022.4
20260508163352 69 60 4.0 8.0 0.00 0.00 0.00 20 1022.4
20260508162627 68 79 4.0 7.0 0.00 0.00 0.00 21 1022.4
20260508162127 68 71 3.0 7.0 0.00 0.00 0.00 20 1022.4
20260508161626 68 84 3.0 9.0 0.00 0.00 0.00 19 1022.4
20260508161119 68 89 2.0 9.0 0.00 0.00 0.00 20 1022.4
20260508160617 67 61 2.0 7.0 0.00 0.00 0.00 21 1022.4
20260508160115 67 58 2.0 7.0 0.00 0.00 0.00 20 1022.3
20260508155615 66 63 2.0 8.0 0.00 0.00 0.00 21 1022.1
20260508155111 66 63 2.0 8.0 0.00 0.00 0.00 21 1021.9
20260508154609 65 62 3.0 7.0 0.00 0.00 0.00 21 1021.8
20260508154112 65 53 3.0 6.0 0.00 0.00 0.00 21 1021.8
20260508153603 65 51 2.0 6.0 0.00 0.00 0.00 21 1021.7
20260508153102 64 42 2.0 6.0 0.00 0.00 0.00 22 1021.6
20260508152603 64 43 3.0 8.0 0.00 0.00 0.00 22 1021.3
20260508152103 64 41 4.0 8.0 0.00 0.00 0.00 22 1021.6
20260508151603 64 51 3.0 8.0 0.00 0.00 0.00 22 1021.7
20260508151102 64 25 2.0 7.0 0.00 0.00 0.00 22 1021.6
20260508150603 64 32 2.0 7.0 0.00 0.00 0.00 23 1021.6
20260508150311 63 34 3.0 7.0 0.00 0.00 0.00 24 1021.5
20260508145548 62 44 4.0 7.0 0.00 0.00 0.00 24 1021.3
20260508145048 62 32 3.0 9.0 0.00 0.00 0.00 23 1021.1
20260508144547 62 15 2.0 9.0 0.00 0.00 0.00 24 1021.1
20260508144041 62 34 2.0 7.0 0.00 0.00 0.00 22 1020.8
20260508143531 61 36 3.0 7.0 0.00 0.00 0.00 23 1020.7
20260508143243 61 36 3.0 7.0 0.00 0.00 0.00 23 1020.6
20260508142526 60 32 2.0 7.0 0.00 0.00 0.00 23 1020.5
20260508142026 60 31 2.0 7.0 0.00 0.00 0.00 23 1020.2
20260508141754 59 30 3.0 7.0 0.00 0.00 0.00 24 1020.0
20260508141021 58 15 3.0 6.0 0.00 0.00 0.00 24 1019.6
20260508140521 58 13 2.0 5.0 0.00 0.00 0.00 24 1019.4
20260508140019 57 12 1.0 7.0 0.00 0.00 0.00 25 1019.0
20260508135513 55 11 2.0 7.0 0.00 0.00 0.00 26 1018.4
20260508135235 54 11 1.0 4.0 0.00 0.00 0.00 28 1017.9
20260508134510 53 0 1.0 5.0 0.00 0.00 0.00 30 1017.3
20260508134013 51 0 1.0 5.0 0.00 0.00 0.00 30 1016.7
20260508133511 50 0 1.0 5.0 0.00 0.00 0.00 30 1016.2
20260508133010 49 0 1.0 5.0 0.00 0.00 0.00 32 1015.5
20260508132506 47 0 1.0 5.0 0.00 0.00 0.00 34 1014.6
20260508132006 45 0 0.0 4.0 0.00 0.00 0.00 35 1013.8
20260508131504 44 0 0.0 2.0 0.00 0.00 0.00 38 1013.3
20260508131226 42 0 0.0 2.0 0.00 0.00 0.00 39 1012.6
20260508130500 41 0 0.0 0.0 0.00 0.00 0.00 39 1012.0
20260508125958 40 0 0.0 1.0 0.00 0.00 0.00 41 1011.4
20260508125448 39 0 0.0 2.0 0.00 0.00 0.00 42 1010.9
20260508125205 38 0 1.0 2.0 0.00 0.00 0.00 42 1010.5
20260508124440 38 0 2.0 4.0 0.00 0.00 0.00 43 1010.3
20260508123940 37 0 2.0 4.0 0.00 0.00 0.00 42 1010.2
20260508123438 37 0 2.0 3.0 0.00 0.00 0.00 43 1009.8
20260508123202 37 0 2.0 4.0 0.00 0.00 0.00 43 1009.5
20260508122659 36 0 3.0 5.0 0.00 0.00 0.00 43 1009.2
20260508121938 36 0 2.0 5.0 0.00 0.00 0.00 42 1009.2
20260508121431 36 0 1.0 2.0 0.00 0.00 0.00 40 1009.1
20260508120930 36 0 1.0 4.0 0.00 0.00 0.00 39 1009.1
20260508120432 37 0 1.0 4.0 0.00 0.00 0.00 39 1009.3
20260508115931 37 0 1.0 2.0 0.00 0.00 0.00 39 1009.4
20260508115428 37 0 1.0 2.0 0.00 0.00 0.00 39 1009.4
20260508115413 37 0 0.0 1.0 0.00 0.00 0.00 38 1009.4
20260508114902 37 0 0.0 1.0 0.00 0.00 0.00 38 1009.5
20260508113913 37 0 0.0 2.0 0.00 0.00 0.00 39 1009.5
20260508113404 37 0 0.0 2.0 0.00 0.00 0.00 38 1009.7
20260508112903 38 0 0.0 1.0 0.00 0.00 0.00 38 1009.9
20260508112626 38 0 0.0 2.0 0.00 0.00 0.00 39 1010.0
20260508112344 38 0 0.0 2.0 0.00 0.00 0.00 38 1010.2
20260508111402 39 0 1.0 4.0 0.00 0.00 0.00 37 1010.2
20260508110831 39 0 1.0 4.0 0.00 0.00 0.00 37 1010.3
20260508110330 39 0 2.0 4.0 0.00 0.00 0.00 37 1010.4
20260508105821 39 0 3.0 5.0 0.00 0.00 0.00 36 1010.6
20260508105314 40 0 3.0 6.0 0.00 0.00 0.00 36 1010.4
20260508104810 40 0 3.0 6.0 0.00 0.00 0.00 36 1010.3
20260508104757 40 9 2.0 5.0 0.00 0.00 0.00 36 1010.2
20260508103808 40 9 2.0 5.0 0.00 0.00 0.00 35 1010.2
20260508103303 40 9 2.0 5.0 0.00 0.00 0.00 35 1010.4
20260508102802 40 9 2.0 5.0 0.00 0.00 0.00 35 1010.5
20260508102300 40 5 3.0 5.0 0.00 0.00 0.00 35 1010.5
20260508101752 41 5 2.0 5.0 0.00 0.00 0.00 34 1010.6
20260508101251 41 5 3.0 5.0 0.00 0.00 0.00 34 1010.6
20260508100752 41 5 4.0 6.0 0.00 0.00 0.00 34 1010.6
20260508100245 40 5 3.0 6.0 0.00 0.00 0.00 34 1010.4
20260508095739 40 5 2.0 5.0 0.00 0.00 0.00 33 1010.4
20260508095237 40 5 2.0 5.0 0.00 0.00 0.00 33 1010.4
20260508094733 40 5 2.0 5.0 0.00 0.00 0.00 33 1010.5
20260508094232 41 5 3.0 5.0 0.00 0.00 0.00 33 1010.6
20260508093731 41 5 3.0 4.0 0.00 0.00 0.00 33 1010.6
20260508093233 41 5 2.0 4.0 0.00 0.00 0.00 32 1010.6
20260508092731 41 5 2.0 5.0 0.00 0.00 0.00 32 1010.8
20260508092231 41 5 2.0 5.0 0.00 0.00 0.00 32 1010.9
20260508091731 41 5 1.0 4.0 0.00 0.00 0.00 32 1011.0
20260508091236 41 5 1.0 4.0 0.00 0.00 0.00 32 1011.0
20260508090736 42 5 1.0 4.0 0.00 0.00 0.00 31 1011.2
20260508090231 42 5 2.0 5.0 0.00 0.00 0.00 31 1011.4
20260508085731 42 5 3.0 5.0 0.00 0.00 0.00 31 1011.4
20260508085231 42 5 3.0 5.0 0.00 0.00 0.00 31 1011.2
20260508084730 42 5 3.0 5.0 0.00 0.00 0.00 31 1011.4
20260508084230 42 5 2.0 5.0 0.00 0.00 0.00 31 1011.5
20260508083731 42 5 1.0 4.0 0.00 0.00 0.00 30 1011.7
20260508083232 42 5 2.0 4.0 0.00 0.00 0.00 30 1011.7
20260508082731 42 5 2.0 4.0 0.00 0.00 0.00 30 1011.7
20260508082231 42 5 1.0 4.0 0.00 0.00 0.00 30 1011.7
20260508081731 43 5 1.0 4.0 0.00 0.00 0.00 29 1011.9
20260508081231 43 5 2.0 4.0 0.00 0.00 0.00 30 1012.0
20260508080731 43 5 3.0 5.0 0.00 0.00 0.00 29 1012.3
20260508080229 43 5 2.0 5.0 0.00 0.00 0.00 28 1012.2
20260508075728 44 5 0.0 4.0 0.00 0.00 0.00 27 1012.5
20260508075225 44 5 0.0 4.0 0.00 0.00 0.00 27 1012.7
20260508074718 45 5 1.0 6.0 0.00 0.00 0.00 27 1013.1
20260508074209 45 5 1.0 6.0 0.00 0.00 0.00 27 1013.3
20260508073703 46 5 0.0 0.0 0.00 0.00 0.00 26 1013.6
20260508073204 46 5 0.0 0.0 0.00 0.00 0.00 25 1013.7
20260508072704 47 5 0.0 1.0 0.00 0.00 0.00 25 1014.0
20260508072203 48 5 0.0 1.0 0.00 0.00 0.00 24 1014.3
20260508071918 48 5 0.0 3.0 0.00 0.00 0.00 24 1014.4
20260508071145 49 5 0.0 3.0 0.00 0.00 0.00 24 1014.5
20260508070642 49 5 1.0 4.0 0.00 0.00 0.00 23 1014.8
20260508070143 50 5 1.0 4.0 0.00 0.00 0.00 23 1014.9
20260508065637 51 5 1.0 4.0 0.00 0.00 0.00 23 1015.1
20260508065131 51 5 0.0 0.0 0.00 0.00 0.00 22 1015.5
20260508064632 0 0.0 0.0 0.00 0.00 0.00 1018.0
20260508064131 0 0.0 0.0 0.00 0.00 0.00 1270.3
20260508063632 0 0.0 0.0 0.00 0.00 0.00 1270.3
20260508063130 0 0.0 0.0 0.00 0.00 0.00 1270.5
20260508062842 0 0.0 0.0 0.00 0.00 0.00 1270.5
20260508062121 0 0.0 0.0 0.00 0.00 0.00 1270.6
20260508061621 0 0.0 0.0 0.00 0.00 0.00 1270.8
20260508061325 0 0.0 0.0 0.00 0.00 0.00 1270.9
20260508060600 0 0.0 0.0 0.00 0.00 0.00 1271.1
20260508060038 58 302 7.0 6.0 0.00 0.00 0.00 18 1271.1
20260508055647 58 302 7.0 6.0 0.00 0.00 0.00 18 1019.1
20260508055639 58 302 7.0 11.0 0.00 0.00 0.00 18 1019.0
20260508055627 58 302 8.0 14.0 0.00 0.00 0.00 18 1019.0
20260508054025 58 294 8.0 14.0 0.00 0.00 0.00 18 1019.1
20260508053514 58 305 7.0 13.0 0.00 0.00 0.00 18 1019.0
20260508053013 58 294 7.0 12.0 0.00 0.00 0.00 18 1019.0
20260508052512 58 298 7.0 12.0 0.00 0.00 0.00 17 1019.0
20260508052008 58 299 7.0 12.0 0.00 0.00 0.00 17 1019.1
20260508051504 58 301 6.0 11.0 0.00 0.00 0.00 17 1019.0
20260508051003 58 302 7.0 12.0 0.00 0.00 0.00 17 1019.3
20260508050503 58 327 7.0 12.0 0.00 0.00 0.00 16 1019.5
20260508050003 59 315 7.0 12.0 0.00 0.00 0.00 16 1019.4
20260508045503 59 306 7.0 14.0 0.00 0.00 0.00 16 1019.5
20260508045002 59 282 7.0 14.0 0.00 0.00 0.00 16 1019.6
20260508044502 59 309 8.0 20.0 0.00 0.00 0.00 16 1019.6
20260508044229 59 281 8.0 20.0 0.00 0.00 0.00 16 1019.5
20260508043500 58 304 7.0 12.0 0.00 0.00 0.00 16 1019.5
20260508043000 58 300 7.0 14.0 0.00 0.00 0.00 16 1019.5
20260508042452 58 291 7.0 14.0 0.00 0.00 0.00 16 1019.5
20260508041946 58 304 7.0 15.0 0.00 0.00 0.00 16 1019.5
20260508041443 58 289 7.0 15.0 0.00 0.00 0.00 16 1019.4
20260508040940 58 292 7.0 12.0 0.00 0.00 0.00 16 1019.6